Regional Weather Roundup
Issued by NWS New Orleans/Baton Rouge, LA

Home | Current Version | Previous Version | Text Only | Print | Product List | Glossary Off
Versions: 1 2 3 4 5 6 7 8 9 10 11 12 13 14 15 16 17 18 19 20 21 22 23 24 25 26 27 28 29 30 31 32 33 34 35 36 37 38 39 40 41 42 43 44 45 46 47 48 49 50

354
ASUS44 KLIX 271410
RWRLIX
NEW ORLEANS REGIONAL WEATHER ROUNDUP
NATIONAL WEATHER SERVICE NEW ORLEANS LA
800 AM CST FRI FEB 27 2015

NOTE: "FAIR" INDICATES FEW OR NO CLOUDS BELOW 12,000 FEET WITH NO
      SIGNIFICANT WEATHER AND/OR OBSTRUCTIONS TO VISIBILITY.
      SKY/WX - SKY CONDITION AND SIGNIFICANT WEATHER.
      TMP - AIR TEMPERATURE.     DP    - DEWPOINT TEMPERATURE.
      RH  - RELATIVE HUMIDITY.   PRES  - PRESSURE.
      HI  - HEAT INDEX.          WCI   - WIND CHILL INDEX.

*  THESE STATIONS ARE NOT NWS OR FAA STATIONS AND ARE NOT UNDER
   NWS QUALITY CONTROL.

LAZ038-040-048-061>063-065>067-069-271500-
SOUTHEAST LOUISIANA

CITY           SKY/WX    TMP DP  RH WIND       PRES   REMARKS
N.O. AUDUBON     N/A     38  33  80 MISG        N/A
N.O. INTL ARPT PTSUNNY   38  30  73 NE18G28   30.39S WCI  28
N.O. LAKEFRONT MOSUNNY   40  32  73 NE22      30.39F WCI  30
SLIDELL        SUNNY     36  31  82 NE10      30.38F WCI  28
BATON ROUGE    CLOUDY    36  29  75 NE6       30.41R WCI  31
BOOTHVILLE     CLOUDY    43  36  76 NE13G26   30.36R
BELLE CHASSE   PTSUNNY   39  29  67 NE16      30.37F HAZE    WCI  30
BOGALUSA*        N/A     38  31  77 NE8       30.41F WCI  32
GALLIANO*      CLOUDY    40  34  77 N12       30.36F WCI  33
NEW ROADS*     CLOUDY    36  29  78 NE8       30.41S WCI  29
GONZALES*        N/A     37  31  81 NE6       30.40R WCI  32
HAMMOND*       SUNNY     37  30  75 N6        30.42R WCI  33
HOUMA*         MOSUNNY   37  32  81 NE14      30.37  WCI  29
PORT FOURCHON* CLOUDY    41  36  81 NE22      30.38R

$$

MSZ070-080>082-271500-
SOUTHERN MISSISSIPPI

CITY           SKY/WX    TMP DP  RH WIND       PRES   REMARKS
MCCOMB         CLOUDY    33  27  78 NE10      30.40R WCI  25
GULFPORT       SUNNY     35  29  78 N13       30.40R WCI  26
BILOXI         SUNNY     35  31  85 NE13      30.39R WCI  26
PASCAGOULA     SUNNY     34  29  82 N12       30.40R WCI  25
STENNIS ARPT*  SUNNY     36  27  69 NE12G17   30.40S WCI  27

$$

COASTAL OBSERVATIONS
LAKE AND NEARSHORE STATIONS

STATION/POSITION TIME  TEMP    WIND        PRES    WAVE
                       AIR SEA DIR/SP/G            HT/PER
                 (UTC) (F)     (DEG/KT/KT) (MB)    (FT/S)
PASCAGOULA       1400   35      20/ 10/ 15 1028.8
WAVELAND YACHT   1400   35 44   40/ 17/ 20 1028.8
GRAND ISLE       1400   40 49   40/ 13/ 23 1028.2
SOUTHWEST PASS   1400   48 48   40/ 15/ 19 1026.9
NEW CANAL        1400   38      50/ 21/ 24 1028.8
SHELL BEACH      1400   38 48   50/ 23/ 25 1028.3

OFFSHORE STATIONS

STATION/POSITION TIME  TEMP    WIND        PRES    WAVE
                       AIR SEA DIR/SP/G            HT/PER
                 (UTC) (F)     (DEG/KT/KT) (MB)    (FT/S)
64 S DAUPHIN ISL 1313   47 64   50/ 23/ 29 1027.2    7/ 6

$$




USA.gov is the U.S. government's official web portal to all federal, state and local government web resources and services.